User: anonymous   Login
Location: Unspecified
(0.0000°N, 0.0000°E)
Time: 08:50:19
(UTC+00:00)
Language:

ONEWEB-0375 - Orbit

View from above orbital plane
View from above orbital plane
View from above satellite
View from above satellite

Ground track
Ground track

The orbit is defined by the following mean orbital elements,

1 49301U          26145.37300127 +.00000000 +00000-0 +11616-3 0 00009
2 49301  87.9175 278.9823 0002480  98.9695 261.1719 13.20771415    03
Epoch (UTC): 25 May 2026 08:57:07
Eccentricity: 0.0002480
inclination: 87.9175°
perigee height: 1180 km
apogee height: 1184 km
right ascension of ascending node: 278.9823°
argument of perigee: 98.9695°
revolutions per day: 13.20771415
mean anomaly at epoch: 261.1719°

The dashed part of the orbit path shows where the satellite is in the earth's shadow,  

DLR